FW2728 Weather Reports


Display with metric or nautical units.
time (UTC)temp
F
wind
direction
speed
MPH
gust
MPH
rain 1hr
in
rain 24hr
in
rain mn
in
humidity
%
barometer
mb
20260502194016 77 171 2.0 4.0 0.00 0.00 0.00 31 1020.7
20260502193016 77 46 1.0 3.0 0.00 0.00 0.00 32 1020.8
20260502192037 78 48 2.0 3.0 0.00 0.00 0.00 31 1020.9
20260502191037 78 73 2.0 4.0 0.00 0.00 0.00 31 1021.0
20260502190040 77 219 2.0 4.0 0.00 0.00 0.00 32 1021.0
20260502185041 76 342 3.0 8.0 0.00 0.00 0.00 32 1021.1
20260502184040 75 232 2.0 7.0 0.00 0.00 0.00 34 1021.3
20260502183020 76 278 3.0 7.0 0.00 0.00 0.00 34 1021.5
20260502182101 77 229 1.0 7.0 0.00 0.00 0.00 33 1021.5
20260502181020 75 269 2.0 5.0 0.00 0.00 0.00 32 1021.7
20260502164016 73 289 2.0 5.0 0.00 0.00 0.00 42 1022.5
20260502163057 72 22 1.0 6.0 0.00 0.00 0.00 42 1022.5
20260502162016 71 295 1.0 5.0 0.00 0.00 0.00 46 1022.5
20260502161017 71 318 1.0 5.0 0.00 0.00 0.00 46 1022.4
20260502152017 68 14 0.0 2.0 0.00 0.00 0.00 54 1022.3
20260502151017 66 349 1.0 3.0 0.00 0.00 0.00 61 1022.3
20260502123017 48 15 0.0 0.0 0.00 0.00 0.00 97 1021.4
20260502122017 48 76 0.0 1.0 0.00 0.00 0.00 97 1021.3
20260502121017 47 86 0.0 0.0 0.00 0.00 0.00 97 1021.1
20260502115038 47 21 0.0 0.0 0.00 0.00 0.00 96 1020.7
20260502114018 47 0.0 0.0 0.00 0.00 0.00 96 1020.5
20260502113018 48 52 0.0 1.0 0.00 0.00 0.00 96 1020.3
20260502112018 48 24 0.0 0.0 0.00 0.00 0.00 96 1020.1
20260502111038 48 36 0.0 1.0 0.00 0.00 0.00 96 1019.9
20260502110038 47 43 0.0 0.0 0.00 0.00 0.00 96 1019.9
20260502105019 48 2 0.0 0.0 0.00 0.00 0.00 96 1019.9
20260502104016 48 18 0.0 0.0 0.00 0.00 0.00 96 1019.8
20260502103036 48 66 0.0 1.0 0.00 0.00 0.00 96 1019.6
20260502102016 48 62 1.0 2.0 0.00 0.00 0.00 96 1019.7
20260502101017 48 69 0.0 1.0 0.00 0.00 0.00 96 1019.9
20260502091017 48 74 0.0 1.0 0.00 0.00 0.00 95 1019.4
20260502071017 51 0.0 0.0 0.00 0.00 0.00 92 1019.6
20260502070017 51 41 0.0 1.0 0.00 0.00 0.00 91 1019.6
20260502065017 51 47 0.0 1.0 0.00 0.00 0.00 91 1019.6
20260502064037 52 34 0.0 1.0 0.00 0.00 0.00 90 1019.6
20260502063037 52 43 0.0 1.0 0.00 0.00 0.00 90 1019.5
20260502062017 52 53 0.0 1.0 0.00 0.00 0.00 89 1019.6
20260502061017 52 56 0.0 1.0 0.00 0.00 0.00 89 1019.7
20260502060017 52 44 0.0 1.0 0.00 0.00 0.00 88 1019.7
20260502055018 53 72 0.0 1.0 0.00 0.00 0.00 87 1019.8
20260502054018 53 67 0.0 1.0 0.00 0.00 0.00 86 1019.8
20260502053018 53 313 0.0 1.0 0.00 0.00 0.00 86 1019.8
20260502052018 53 0.0 0.0 0.00 0.00 0.00 85 1019.6
20260502051015 54 26 0.0 1.0 0.00 0.00 0.00 84 1019.6
20260502050015 54 16 0.0 0.0 0.00 0.00 0.00 82 1019.6
20260502045016 55 75 0.0 1.0 0.00 0.00 0.00 80 1019.6
20260502044016 55 332 0.0 1.0 0.00 0.00 0.00 80 1019.6
20260502043016 55 302 0.0 2.0 0.00 0.00 0.00 79 1019.5
20260502042016 56 17 0.0 0.0 0.00 0.00 0.00 78 1019.5
20260502041037 57 33 0.0 1.0 0.00 0.00 0.00 76 1019.5
20260502040036 57 58 0.0 2.0 0.00 0.00 0.00 75 1019.5
20260502035037 57 329 0.0 2.0 0.00 0.00 0.00 74 1019.4
20260502034017 57 53 0.0 1.0 0.00 0.00 0.00 73 1019.2
20260502033017 58 44 0.0 1.0 0.00 0.00 0.00 72 1019.2
20260502032017 58 68 0.0 1.0 0.00 0.00 0.00 70 1019.2
20260502031018 59 41 0.0 1.0 0.00 0.00 0.00 70 1019.2
20260502030018 59 37 0.0 1.0 0.00 0.00 0.00 68 1019.0
20260502025058 59 94 0.0 2.0 0.00 0.00 0.00 66 1018.8
20260502024018 60 77 0.0 2.0 0.00 0.00 0.00 66 1018.6
20260502023018 60 80 1.0 3.0 0.00 0.00 0.00 65 1018.6
20260502022059 60 75 0.0 2.0 0.00 0.00 0.00 64 1018.5
20260502021016 60 92 1.0 2.0 0.00 0.00 0.00 64 1018.4
20260502020015 61 92 0.0 3.0 0.00 0.00 0.00 64 1018.3
20260502015016 61 88 1.0 4.0 0.00 0.00 0.00 64 1018.0
20260502014017 61 75 1.0 4.0 0.00 0.00 0.00 64 1017.8
20260502013017 61 86 1.0 4.0 0.00 0.00 0.00 62 1017.5
20260502012017 61 80 1.0 4.0 0.00 0.00 0.00 61 1017.5
20260502011017 62 86 1.0 5.0 0.00 0.00 0.00 61 1017.2
20260502010017 62 70 1.0 3.0 0.00 0.00 0.00 61 1016.9
20260502005118 62 81 1.0 5.0 0.00 0.00 0.00 61 1016.7
20260502004017 62 101 1.0 5.0 0.00 0.00 0.00 61 1016.6
20260502003017 63 92 1.0 4.0 0.00 0.00 0.00 61 1016.6
20260502002018 63 91 1.0 3.0 0.00 0.00 0.00 59 1016.4
20260502001017 63 75 1.0 4.0 0.00 0.00 0.00 58 1016.1
20260502000018 63 70 1.0 3.0 0.00 0.00 0.00 56 1016.2
20260501235015 63 66 1.0 3.0 0.00 0.00 0.00 55 1016.1
20260501234015 64 81 2.0 4.0 0.00 0.00 0.00 54 1016.2
20260501233016 64 65 2.0 4.0 0.00 0.00 0.00 55 1016.0
20260501232016 64 64 2.0 4.0 0.00 0.00 0.00 54 1015.7
20260501231036 64 73 2.0 5.0 0.00 0.00 0.00 54 1015.6
20260501230016 64 59 2.0 6.0 0.00 0.00 0.00 53 1015.6
20260501225016 64 55 3.0 5.0 0.00 0.00 0.00 53 1015.6
20260501224016 64 47 3.0 8.0 0.00 0.00 0.00 52 1015.4
20260501223017 64 43 4.0 7.0 0.00 0.00 0.00 51 1015.5
20260501222017 64 50 3.0 7.0 0.00 0.00 0.00 51 1015.6
20260501221017 64 52 3.0 6.0 0.00 0.00 0.00 52 1015.4
20260501220017 65 45 2.0 4.0 0.00 0.00 0.00 51 1015.4
20260501215017 65 47 3.0 6.0 0.00 0.00 0.00 51 1015.4
20260501214018 65 51 2.0 5.0 0.00 0.00 0.00 50 1015.4
20260501213018 65 46 3.0 7.0 0.00 0.00 0.00 50 1015.4
20260501212018 65 55 2.0 4.0 0.00 0.00 0.00 51 1015.5
20260501211038 65 41 2.0 4.0 0.00 0.00 0.00 50 1015.6
20260501210018 65 37 1.0 4.0 0.00 0.00 0.00 51 1015.5
20260501205018 65 47 2.0 6.0 0.00 0.00 0.00 51 1015.7
20260501204015 65 50 2.0 6.0 0.00 0.00 0.00 52 1016.2
20260501203016 65 46 2.0 8.0 0.00 0.00 0.00 52 1016.1
20260501202016 64 48 3.0 7.0 0.00 0.00 0.00 52 1016.3
20260501201016 64 66 2.0 6.0 0.00 0.00 0.00 51 1016.6
20260501200016 64 66 2.0 7.0 0.00 0.00 0.00 51 1016.7
20260501195036 64 50 2.0 7.0 0.00 0.00 0.00 50 1016.6